Regional Weather Roundup
Issued by NWS

Home | Current Version | Previous Version | Graphics & Text | Print | Product List | Glossary On
Versions: 1 2 3 4 5 6 7 8 9 10 11 12 13 14 15 16 17 18 19 20 21 22 23 24 25 26 27 28 29 30 31 32 33 34 35 36 37 38 39 40 41 42 43 44 45 46 47 48 49 50
000
ASUS43 KFSD 160302
RWRSD

WEATHER ROUNDUP FOR SOUTH DAKOTA
NATIONAL WEATHER SERVICE SIOUX FALLS SD
1000 PM CDT TUE APR 15 2014

NOTE: "FAIR" INDICATES FEW OR NO CLOUDS BELOW 12,000 FEET WITH NO
SIGNIFICANT WEATHER AND/OR OBSTRUCTIONS TO VISIBILITY.


SDZ001>005-009-010-012>017-160400-
NORTHWEST AND NORTH CENTRAL SOUTH DAKOTA

CITY           SKY/WX    TMP DP  RH WIND       PRES   REMARKS
BUFFALO          N/A     51  27  39 N20G28    29.54R
MOBRIDGE       CLOUDY    41  22  46 E29G36    29.62R
$$

SDZ012>016-024>037-041>051-057-063-072>074-160400-
SOUTHWEST AND SOUTH CENTRAL SOUTH DAKOTA

CITY           SKY/WX    TMP DP  RH WIND       PRES   REMARKS
RAPID CTY ARPT CLOUDY    53  32  44 N20       29.55R
PIERRE         CLOUDY    51  29  42 SE20      29.53F
CUSTER         CLOUDY    47  20  34 N3        29.58F
ELLSWORTH AFB  CLOUDY    54  33  45 N13       29.57R
PHILIP         CLOUDY    54  21  27 E8        29.51S
PINE RIDGE     CLOUDY    47  27  45 CALM      29.55F
WINNER         FAIR      54  30  40 SE13      29.57S
$$

SDZ004>011-016>023-039-040-160400-
NORTHEAST SOUTH DAKOTA

CITY           SKY/WX    TMP DP  RH WIND       PRES   REMARKS
ABERDEEN       CLOUDY    34  16  47 E23G33    29.78S WCI  22
WATERTOWN      CLOUDY    34  19  54 E15G22    29.80S WCI  24
SISSETON         N/A     33  14  45 SE16G24   29.89S WCI  23
$$

SDZ017-020-022-023-036>040-048>070-160400-
SOUTHEAST SOUTH DAKOTA

CITY           SKY/WX    TMP DP  RH WIND       PRES   REMARKS
SIOUX FALLS    CLOUDY    40  24  53 SE17G25   29.80S
HURON          CLOUDY    44  25  47 SE17G30   29.68S
CHAMBERLAIN      N/A     51  29  42 SE20      29.60S
MITCHELL       CLOUDY    47  29  49 SE23G32   29.70R
YANKTON        CLOUDY    46  27  46 E14       29.76S
$$

ABBREVIATIONS USED IN REMARKS
   TC - TEMPERATURE IN CELSIUS
  WCI - WIND CHILL INDEX
   HX - HEAT INDEX
  VSB - VISIBILITY




USA.gov is the U.S. government's official web portal to all federal, state and local government web resources and services.